Whidbey Island, WA
on Wednesday, January 16, 2013

Wednesday
Previous Day Next Day
Daily Summary
 ActualAverageRecord
Temperature
Mean Temperature °F °F  
Max Temperature 42°F 45°F 55°F (2011)
Min Temperature 26°F 35°F 26°F (2012)
Degree Days
Heating Degree Days 31    
Moisture
Dew Point 28°F   
Average Humidity 82    
Maximum Humidity 93    
Minimum Humidity 67    
Precipitation
Precipitation 0.00 in in in ()
Wind
Wind Speed 5 mph   
Max Wind Speed 7 mph   
Max Gust Speed mph   
Visibility 10 miles   
Events     
Averages and records for this station are not official NWS values.
Key: T is trace of precipitation, MM is missing value
Source: NWS Daily Summary
Seasonal Weather Averages
Time(PST)TemperatureDew PointHumidity Pressure Visibility Wind DirectionWind SpeedGust SpeedPrecipitationEvents Conditions
12:56 AM 28.9°F 26.1°F 89% 30.70 in 9.0 miles East 6.9 mph - N/A   Scattered Clouds
1:56 AM 28.9°F 25.0°F 85% 30.71 in 9.0 miles ESE 4.6 mph - N/A   Scattered Clouds
2:56 AM 30.0°F 26.1°F 85% 30.71 in 10.0 miles East 5.8 mph - N/A   Partly Cloudy
3:56 AM 28.0°F 25.0°F 88% 30.70 in 10.0 miles ESE 6.9 mph - N/A   Partly Cloudy
4:56 AM 28.0°F 25.0°F 88% 30.69 in 10.0 miles ESE 4.6 mph - N/A   Mostly Cloudy
5:56 AM 28.0°F 25.0°F 88% 30.67 in 10.0 miles ESE 4.6 mph - N/A   Mostly Cloudy
6:56 AM 28.0°F 25.0°F 88% 30.66 in 10.0 miles East 6.9 mph - N/A   Mostly Cloudy
7:45 AM 26.6°F 24.8°F 93% 30.65 in 10.0 miles SE 3.5 mph - N/A   Scattered Clouds
7:56 AM 28.0°F 25.0°F 88% 30.67 in 10.0 miles ESE 3.5 mph - N/A   Scattered Clouds
8:56 AM 30.9°F 28.0°F 89% 30.67 in 10.0 miles East 5.8 mph - N/A   Scattered Clouds
9:56 AM 35.1°F 30.9°F 85% 30.66 in 10.0 miles ESE 5.8 mph - N/A   Scattered Clouds
10:56 AM 37.0°F 33.1°F 86% 30.66 in 10.0 miles SE 3.5 mph - N/A   Clear
11:56 AM 41.0°F 33.1°F 73% 30.65 in 10.0 miles NNW 6.9 mph - N/A   Partly Cloudy
12:56 PM 42.1°F 33.1°F 70% 30.62 in 10.0 miles NNW 6.9 mph - N/A   Partly Cloudy
1:56 PM 42.1°F 33.1°F 70% 30.61 in 10.0 miles NW 6.9 mph - N/A   Clear
2:56 PM 42.1°F 32.0°F 67% 30.61 in 10.0 miles NW 4.6 mph - N/A   Clear
3:56 PM 42.1°F 32.0°F 67% 30.59 in 10.0 miles Calm Calm - N/A   Clear
4:56 PM 37.0°F 28.9°F 73% 30.60 in 10.0 miles Calm Calm - N/A   Partly Cloudy
5:56 PM 34.0°F 27.0°F 75% 30.59 in 10.0 miles Calm Calm - N/A   Partly Cloudy
6:56 PM 30.9°F 27.0°F 85% 30.58 in 10.0 miles SE 3.5 mph - N/A   Partly Cloudy
7:56 PM 30.0°F 27.0°F 88% 30.57 in 10.0 miles Calm Calm - N/A   Partly Cloudy
8:56 PM 33.1°F 28.0°F 82% 30.57 in 10.0 miles Calm Calm - N/A   Partly Cloudy
9:56 PM 30.9°F 27.0°F 85% 30.57 in 9.0 miles Calm Calm - N/A   Clear
10:56 PM 28.9°F 26.1°F 89% 30.56 in 7.0 miles East 3.5 mph - N/A   Clear
11:56 PM 28.0°F 24.1°F 85% 30.55 in 7.0 miles ESE 4.6 mph - N/A   Clear
Moon Phase
Jan. 16 Jan. 18 Jan. 26 Feb. 03 Feb. 10
Sunrise:07:55 AM (PST) Moon Rise:10:04 AM (PST)1/16
Sunset:04:45 PM (PST) Moon Set:11:16 PM (PST)1/16

Copyright © 2014 The Weather Underground, Inc.